Content
SEND FEEDBACK

Daily
Averages
Monthly
Summary
United States of America

DRAPER, UTAH


Home > North America > United States > Utah
Elevation: 5059 feet     Latitude: 40 29N     Longitude: 111 54W

WEATHER
 
SELECT A DAY
Number of Records: 402,395;   Date Range: 1/1/95 - 9/30/14
 
SHARE

PRINT THIS DATA

[ ← Previous Day ]
WEATHER ALMANAC - FEBRUARY 12, 2013
[ Next Day → ]
[ °C ]   °F
Weather ElementAverageHighLow
Temperature15 °F24.8 °F (3:50 pm)5 °F (4:55 am)
Dewpoint12 °F21.2 °F (6:47 pm)1.4 °F (3:15 am)
Humidity88.4 %100 % (1:35 am)69 % (3:50 pm)
Barometer30.33 in30.39 in (10:47 am)30.26 in (12:35 am)
Wind Speed1.1 mph6.9 mph (10:47 am)
Weather ElementAverage
Visibility8 mi
Wind DirectionNE (49.3 °)

Weather ElementTotal
Precipitation---
Heating Degree Days50.1 (Base 65)
Averaged from 40 records on February 12, 2013
WEATHER CONDITIONS BREAKOUT
WIND DIRECTION BREAKOUT
WEATHER BY HOUR - FEBRUARY 12, 2013
[ °C ]   °F
Local TimeTemperatureDewpointHumidityBarometerVisibilityWind DirectionWind SpeedGust SpeedPrecipitationEventsConditions
12:35 AM10.4 °F8.6 °F92 %30.26 in6.0 miCalmClear
12:55 AM10.4 °F8.6 °F92 %30.27 in4.0 miCalmClear
1:15 AM10.4 °F8.6 °F92 %30.27 in6.0 miCalmClear
1:35 AM10.4 °F10.4 °F100 %30.28 in7.0 miCalmClear
1:55 AM10.4 °F5.0 °F79 %30.28 in1.5 miCalmClear
2:15 AM8.6 °F6.8 °F92 %30.28 in5.0 miCalmClear
2:35 AM10.4 °F10.4 °F100 %30.29 in9.0 miEast (100°)3.5 mphClear
2:55 AM10.4 °F6.8 °F85 %30.29 in10.0 miSSE (150°)3.5 mphClear
3:15 AM6.8 °F1.4 °F79 %30.29 in10.0 miSouth (180°)4.6 mphClear
3:55 AM8.6 °F5.0 °F85 %30.29 in10.0 miCalmPartly Cloudy
4:15 AM8.6 °F6.8 °F92 %30.29 in10.0 miCalmMostly Cloudy
4:35 AM10.4 °F10.4 °F100 %30.29 in10.0 miCalmOvercast
4:55 AM5.0 °F1.4 °F85 %30.30 in10.0 miCalmOvercast
5:15 AM6.8 °F6.8 °F100 %30.31 in10.0 miCalmOvercast
5:35 AM6.8 °F3.2 °F85 %30.31 in10.0 miCalmOvercast
5:55 AM6.8 °F6.8 °F100 %30.33 in10.0 miCalmOvercast
6:15 AM6.8 °F3.2 °F85 %30.33 in5.0 miCalmMostly Cloudy
6:35 AM6.8 °F6.8 °F100 %30.33 in8.0 miCalmMostly Cloudy
6:52 AM8.6 °F6.8 °F92 %30.34 in7.0 miCalmMostly Cloudy
6:55 AM8.6 °F8.6 °F100 %30.34 in10.0 miCalmOvercast
7:55 AM8.6 °F6.8 °F92 %30.35 in8.0 miCalmMostly Cloudy
8:47 AM12.2 °F10.4 °F92 %30.37 in8.0 miCalmMostly Cloudy
9:50 AM15.8 °F14.0 °F93 %30.38 in8.0 miCalmMostly Cloudy
10:47 AM17.6 °F15.8 °F93 %30.39 in8.0 miSE (130°)6.9 mphMostly Cloudy
12:50 PM21.2 °F15.8 °F80 %30.36 in8.0 miCalmOvercast
2:50 PM23.0 °F15.8 °F74 %30.34 in8.0 miVariable5.8 mphOvercast
3:50 PM24.8 °F15.8 °F69 %30.34 in8.0 miCalmOvercast
4:48 PM23.0 °F17.6 °F80 %30.35 in8.0 miCalmOvercast
5:47 PM24.8 °F17.6 °F74 %30.36 in8.0 miCalmOvercast
6:47 PM24.8 °F21.2 °F86 %30.36 in5.0 miCalmSnowLight Snow
7:48 PM24.8 °F19.4 °F80 %30.36 in10.0 miCalmOvercast
8:58 PM23.0 °F19.4 °F86 %30.37 in10.0 miCalmOvercast
9:15 PM23.0 °F19.4 °F86 %30.36 in8.0 miWNW (300°)3.5 mphOvercast
9:35 PM23.0 °F19.4 °F86 %30.37 in9.0 miNW (310°)4.6 mphOvercast
9:55 PM23.0 °F19.4 °F86 %30.37 in8.0 miCalmOvercast
10:15 PM23.0 °F19.4 °F86 %30.38 in8.0 miNW (310°)3.5 mphOvercast
10:35 PM23.0 °F19.4 °F86 %30.38 in8.0 miNNW (330°)3.5 mphOvercast
10:55 PM23.0 °F19.4 °F86 %30.37 in8.0 miCalmOvercast
11:35 PM23.0 °F21.2 °F93 %30.38 in7.0 miCalmOvercast
11:55 PM23.0 °F21.2 °F93 %30.38 in7.0 miSSE (160°)3.5 mphOvercast
Hourly data recorded from KPVU, located miles away from Draper, Utah







STORIES FROM OUR PARTNERS